Theta_e
311 311 311 311 310 310 309 309 308 307 307 307 307 308 308 308 307 308 308 309 310 310 310 310 310 310 311 311 311 311 311 312 312 312 315 317 314 313 313 313 314 314 314 315 314 315 316 316 316 315 317 316 317 318 319 318 316 321 329 326 321 322 319 317 320 321 321 319 317 316 317 317 317 317 317 317 316 316 316 315 314 314 314 314 314 314 314 314
310 310 310 309 309 308 307 307 307 307 307 307 307 307 307 308 308 308 309 310 310 310 310 310 310 311 310 311 311 311 312 312 312 314 317 315 313 313 313 313 314 314 314 315 315 315 316 316 315 315 316 316 317 318 320 320 317 321 330 326 320 321 318 316 318 317 318 318 316 316 317 317 317 317 317 317 315 315 316 314 313 314 314 313 313 313 313 313
309 308 308 307 307 307 307 307 307 307 307 307 307 307 307 308 308 308 309 309 309 310 310 310 310 310 310 311 311 311 312 311 313 317 317 313 313 313 313 314 314 314 314 315 315 314 315 315 315 315 315 316 316 318 319 320 319 319 326 327 320 318 316 316 317 316 317 317 316 317 317 317 317 316 316 316 315 315 315 314 313 314 313 313 313 313 313 313
307 307 307 307 307 307 307 307 307 307 308 308 308 308 308 308 308 308 309 309 309 310 310 310 310 310 311 311 311 311 311 313 316 317 315 313 314 313 313 314 314 314 314 314 315 314 314 315 315 315 316 316 316 317 318 319 319 319 323 325 318 316 317 317 317 317 317 317 316 317 316 316 316 316 316 315 316 316 314 314 314 314 314 314 313 313 313 313
307 307 307 307 308 307 308 307 308 308 308 308 308 308 308 308 308 309 309 309 309 309 310 310 310 310 310 310 312 311 312 317 318 314 314 313 313 313 313 313 314 314 313 314 315 315 316 316 315 316 316 316 317 318 319 318 318 319 319 319 317 316 317 317 317 317 316 316 316 316 316 317 316 316 316 316 318 319 315 314 315 315 315 314 313 313 313 312
308 308 308 308 308 308 308 308 308 308 308 308 308 308 308 308 309 309 309 309 309 309 310 310 310 310 310 311 311 310 313 317 316 313 314 313 313 313 313 313 314 314 313 314 315 316 316 316 316 316 316 316 318 319 319 318 318 321 319 317 317 317 317 317 317 317 316 316 316 316 316 316 316 316 316 316 316 317 316 315 315 315 315 314 313 313 313 312
310 310 310 310 310 310 310 309 309 309 309 309 308 308 309 309 309 309 309 309 309 309 309 310 310 310 310 310 310 313 315 316 314 314 314 313 313 313 313 313 313 313 314 314 315 317 316 316 316 315 317 317 317 318 318 317 317 321 320 317 317 317 317 317 317 317 315 316 316 316 316 316 316 316 316 315 316 316 316 315 314 314 314 313 313 313 312 313
311 311 311 311 311 311 311 311 310 310 310 309 309 309 309 309 309 309 309 309 309 309 309 310 310 310 311 310 312 315 315 316 315 314 313 313 313 313 313 313 313 314 314 315 316 317 316 316 316 316 317 317 317 317 317 318 318 319 319 317 317 318 317 317 317 317 316 316 316 315 316 316 316 316 315 315 315 316 315 314 313 312 312 312 312 312 312 312
311 311 310 310 310 310 310 310 310 311 311 310 310 310 310 309 309 309 309 309 309 309 309 310 310 310 310 310 313 315 316 318 316 314 314 313 313 313 313 313 314 315 314 316 317 316 317 316 316 316 316 316 317 317 316 319 319 317 317 316 317 317 317 317 317 317 316 316 316 316 316 316 316 315 315 315 315 315 314 313 312 312 311 311 311 312 312 312
310 309 309 309 309 309 309 309 309 309 310 310 311 311 310 310 309 309 309 309 309 309 309 309 309 310 310 312 314 315 317 320 316 314 314 314 314 314 315 316 316 316 316 317 317 317 316 316 317 316 316 317 317 317 316 319 318 316 316 317 317 317 317 317 317 316 317 316 316 316 316 316 315 315 316 314 314 313 313 312 311 311 311 311 312 312 313 312
309 309 308 308 308 308 308 308 308 308 309 309 310 310 311 310 310 309 309 309 309 309 309 310 309 310 310 312 315 317 319 320 317 316 316 315 315 315 316 317 317 318 317 318 318 318 317 317 317 316 317 317 317 317 316 317 317 316 316 317 317 317 317 316 316 316 316 316 316 316 315 314 314 315 316 314 313 313 312 312 311 311 312 312 312 312 312 312
308 308 308 308 307 307 308 308 308 308 308 308 308 309 310 310 311 310 310 309 309 309 309 309 309 309 310 310 312 315 319 320 318 317 316 315 315 315 316 317 318 319 319 319 318 318 318 318 318 317 317 316 317 317 316 317 316 316 316 318 320 318 318 317 315 316 316 316 316 315 316 317 316 314 315 314 313 312 311 311 311 311 312 312 311 311 312 312
308 308 307 307 307 307 308 308 308 308 308 308 308 308 308 310 310 310 310 310 309 309 309 309 309 310 311 312 312 313 316 317 317 316 315 315 315 316 316 317 318 319 319 319 319 319 318 318 318 317 317 316 318 316 317 316 316 318 316 316 321 321 323 320 315 316 316 315 316 315 318 325 322 314 313 314 313 311 311 310 310 310 311 311 311 311 311 312
307 307 307 307 307 307 307 307 308 308 308 308 308 307 308 308 309 310 310 309 309 309 308 309 309 311 312 312 314 315 315 315 316 316 315 315 316 316 317 317 318 319 319 319 318 318 317 318 317 316 317 317 317 316 318 317 316 319 317 319 322 321 328 324 314 316 317 315 315 316 319 325 324 314 311 313 312 311 311 310 310 310 311 311 311 311 311 311
307 307 307 307 307 307 307 307 307 308 308 308 308 307 307 307 308 309 309 309 308 308 309 310 311 313 314 314 314 315 315 316 316 315 316 316 316 317 317 318 318 318 319 318 318 318 317 317 316 316 316 316 317 317 322 323 321 319 318 328 326 319 330 327 313 314 317 314 313 316 319 321 320 314 311 312 311 311 311 310 310 310 311 310 311 311 311 311
307 307 307 307 307 306 306 307 307 307 307 308 308 307 307 307 307 307 308 308 307 308 310 312 313 314 315 315 314 316 316 315 316 315 316 316 316 317 317 318 318 318 318 317 317 317 316 316 316 317 316 317 319 322 328 329 328 324 319 328 329 321 325 324 315 314 315 314 313 315 319 321 319 312 311 312 310 311 311 311 311 310 311 310 310 310 310 311
308 308 307 307 306 306 306 306 306 307 307 308 307 307 307 306 306 306 307 307 307 310 312 314 316 315 315 316 316 316 316 316 316 316 316 316 317 317 318 318 317 317 317 317 317 316 316 316 316 318 317 317 320 325 329 327 329 329 321 321 325 323 321 322 321 316 313 315 315 314 316 319 318 312 310 312 311 311 311 311 312 311 311 310 310 310 310 310
309 308 308 307 306 306 306 306 306 306 307 307 307 307 307 306 306 306 307 307 309 311 313 315 316 314 314 315 315 316 316 316 317 316 317 317 317 317 317 317 317 317 316 316 316 316 316 315 317 320 319 317 318 323 327 326 328 331 326 323 323 324 323 322 323 318 314 316 316 316 315 316 316 313 310 311 311 311 312 311 311 311 311 310 309 309 309 309
308 308 308 307 307 306 306 306 306 306 307 307 307 307 306 306 307 307 308 309 311 313 314 315 314 313 316 316 314 315 316 317 317 317 317 317 317 317 317 316 316 316 316 317 317 315 316 317 319 321 321 320 319 320 324 325 328 330 328 328 327 325 324 323 322 318 315 316 317 316 316 315 315 315 312 311 311 311 311 311 311 311 311 310 309 309 309 309
307 307 307 307 307 307 306 306 306 306 307 306 307 306 307 309 310 310 311 311 311 310 312 314 314 313 316 317 316 316 317 317 317 317 317 317 317 316 316 316 316 316 316 320 320 315 316 321 322 323 322 320 319 318 319 321 322 323 322 324 326 324 324 324 322 318 314 317 320 318 317 316 316 318 314 310 311 310 310 311 311 311 311 310 309 308 308 308
307 307 307 306 307 307 306 306 306 306 306 307 307 306 309 313 313 314 315 314 311 309 310 313 314 315 316 317 317 317 317 317 317 317 317 317 316 316 316 316 317 318 317 318 318 315 317 321 322 323 320 318 319 319 317 318 319 319 320 321 323 323 323 323 321 318 315 317 323 321 319 318 318 319 315 311 310 310 310 311 310 311 311 310 310 308 308 308
308 307 307 306 306 306 306 306 306 306 306 307 306 307 312 316 314 315 316 317 316 313 313 313 313 315 316 317 318 317 317 317 318 318 317 316 316 317 317 316 319 321 319 317 318 319 319 321 319 318 317 316 320 319 318 318 318 320 321 320 322 325 324 323 321 318 316 318 325 326 321 319 319 319 316 311 310 311 311 312 312 312 311 310 310 309 308 308
312 310 308 307 307 306 306 306 306 306 306 307 306 307 313 317 315 316 316 317 319 315 315 317 315 314 315 317 318 318 317 318 319 318 317 316 316 316 316 317 319 320 319 319 321 322 323 324 320 315 316 318 320 320 319 319 319 322 322 320 324 326 323 325 323 318 317 318 321 323 321 318 317 318 318 314 311 312 312 312 312 311 311 310 310 310 309 308
316 314 311 309 307 307 307 307 307 307 307 307 307 306 312 317 317 317 316 317 320 316 312 315 316 315 315 316 318 318 317 317 318 318 317 316 316 316 316 316 318 318 318 318 320 321 322 324 319 315 317 319 320 320 320 320 321 325 325 323 324 325 323 324 323 320 321 323 320 319 321 323 322 320 319 315 311 311 311 311 311 311 311 311 310 310 309 309
318 317 316 313 310 308 307 308 308 308 307 307 307 306 312 316 317 316 314 317 321 319 315 314 315 316 315 316 317 317 317 317 317 317 317 317 317 317 316 316 317 319 318 317 318 319 319 318 318 320 320 320 320 321 323 324 323 324 327 325 322 323 324 324 324 323 327 330 324 320 326 332 331 325 322 318 313 313 312 309 310 311 310 310 309 309 309 309
318 318 318 317 313 308 309 310 309 307 306 307 307 306 311 315 316 315 314 318 321 319 318 317 317 317 316 317 317 316 317 317 317 318 317 317 317 317 317 317 317 318 318 317 318 319 319 317 319 322 322 323 322 320 325 325 322 323 326 327 324 322 323 323 323 323 328 331 324 321 327 330 327 324 324 323 318 316 313 309 309 309 310 310 309 309 309 308
319 318 318 318 314 309 310 311 309 307 307 308 307 307 311 315 315 314 314 318 319 317 319 319 317 318 317 317 318 316 318 318 317 318 317 317 317 317 319 318 317 317 316 318 320 320 320 319 321 322 323 325 322 322 325 323 323 327 326 327 328 323 323 324 324 325 329 329 323 322 325 325 323 323 323 322 321 318 314 311 309 307 308 309 308 309 309 309
320 319 319 318 315 311 311 311 310 309 308 309 308 307 311 315 314 315 315 316 318 318 319 318 316 317 317 317 318 317 317 318 319 318 317 317 317 317 318 317 318 318 316 318 322 320 319 321 323 323 322 324 323 325 327 322 323 327 324 326 329 327 327 327 326 325 326 325 323 323 323 324 326 326 321 318 320 319 316 313 309 307 308 308 308 308 308 308
321 319 319 319 316 312 311 312 312 310 308 310 310 308 312 315 314 317 318 314 318 322 318 317 317 316 317 317 316 317 316 316 318 318 316 316 317 316 317 316 316 317 316 317 321 323 320 319 320 322 323 324 325 326 325 324 322 321 321 326 329 328 328 327 326 326 324 324 324 324 323 324 327 327 322 317 319 320 318 315 311 307 307 308 307 308 307 307
321 320 319 319 317 313 311 313 313 311 310 310 311 311 314 316 314 318 319 314 318 323 316 315 318 316 316 317 316 316 316 315 315 316 315 315 316 315 316 316 315 319 320 318 321 322 318 314 315 320 321 319 321 319 317 320 319 318 323 328 329 328 328 328 327 324 324 324 325 325 324 323 327 328 325 320 321 321 318 317 313 308 307 307 307 307 307 306
321 321 320 319 318 315 313 313 313 312 311 310 312 314 315 318 317 317 318 313 313 319 316 316 318 317 316 317 317 317 316 315 313 315 316 315 316 315 316 317 316 320 323 321 322 320 316 317 317 317 316 315 320 318 315 317 316 319 328 329 326 327 328 327 323 321 325 326 325 324 322 321 325 330 327 320 320 320 319 320 318 310 306 307 307 307 307 306
322 322 320 319 319 317 315 315 313 312 311 312 314 316 316 319 320 318 316 311 312 319 319 319 319 317 316 318 319 317 317 316 313 315 317 316 317 316 316 319 318 320 322 320 323 321 319 322 319 316 315 316 322 323 319 320 319 321 327 326 325 325 326 327 323 322 324 323 320 320 320 321 322 324 324 320 319 319 317 316 316 310 306 306 307 307 306 306
322 322 321 320 319 319 318 316 315 312 312 314 315 316 317 318 318 318 314 312 316 321 320 320 319 318 318 320 320 317 318 319 315 315 316 316 317 316 316 319 318 321 326 322 320 322 324 323 319 318 317 316 320 322 321 321 320 321 322 324 326 325 326 329 326 324 325 324 319 316 319 323 322 322 322 320 317 315 312 312 314 312 310 308 307 306 306 305
322 322 321 321 319 319 319 317 315 312 313 316 316 317 318 316 316 317 315 313 317 321 320 320 320 318 318 320 321 318 318 319 315 315 318 317 318 318 317 318 317 321 328 323 319 322 324 324 322 320 318 317 318 319 322 322 319 318 320 323 325 327 330 331 328 326 327 326 320 315 319 325 326 325 320 314 311 310 311 312 313 312 311 309 306 305 306 305
322 322 322 321 320 319 319 317 314 313 314 316 317 318 317 315 315 317 316 314 315 320 320 319 320 319 320 321 321 318 319 321 316 316 319 318 318 318 317 317 315 319 325 323 321 321 321 325 325 318 316 318 318 317 319 321 319 319 322 323 323 326 329 327 325 323 322 323 320 317 322 326 323 321 316 309 308 309 310 310 310 309 308 307 306 305 305 305
322 322 321 320 320 320 319 317 314 313 316 316 317 318 317 315 315 315 316 315 314 318 320 319 320 321 321 322 321 318 319 322 318 317 319 317 317 318 317 317 315 316 320 320 323 323 322 325 322 315 315 316 316 317 316 318 322 320 320 322 321 323 325 325 324 320 318 323 322 319 323 323 319 319 317 312 312 311 309 307 307 306 306 305 305 304 304 304
321 321 319 319 319 320 320 317 314 314 316 316 317 318 317 316 315 314 315 315 313 317 321 320 321 322 322 321 322 320 319 321 319 318 320 318 319 319 317 318 316 315 317 318 323 326 325 325 319 316 319 315 311 316 315 314 319 321 321 320 319 322 324 326 326 323 322 325 323 321 323 322 320 321 318 314 315 316 312 309 306 304 304 305 304 304 304 304
321 320 318 318 318 319 319 317 314 315 317 316 316 318 317 316 315 313 313 314 314 317 319 319 319 322 322 321 322 320 320 322 319 318 321 319 320 320 317 319 317 314 316 317 322 326 324 325 320 315 318 315 311 316 318 315 314 318 320 318 320 326 325 324 325 325 326 325 325 324 322 321 320 321 320 316 317 319 315 311 308 305 304 304 304 304 304 304
320 318 317 318 318 318 319 317 315 316 317 317 316 316 317 316 314 313 313 313 314 316 316 317 318 320 322 321 322 321 319 321 319 318 321 320 320 320 317 319 319 316 315 316 320 325 324 325 323 315 315 316 314 317 321 319 315 315 316 315 320 325 323 323 324 324 326 326 326 326 323 322 320 320 322 321 318 317 315 312 310 306 304 304 304 304 303 304
319 317 317 319 318 318 317 316 315 316 317 317 315 314 315 316 314 313 313 313 315 316 316 316 317 319 321 321 322 321 319 320 318 318 321 320 320 321 317 319 320 317 316 316 319 322 322 323 324 316 313 316 317 318 320 320 317 317 318 318 319 319 320 323 322 322 325 325 326 326 324 326 325 319 319 320 318 315 313 313 310 305 304 305 305 304 304 304
318 317 318 319 318 318 317 316 315 316 317 316 315 314 314 315 315 314 313 313 315 317 317 318 318 318 319 320 321 321 320 320 318 318 320 319 320 322 319 318 319 318 317 318 319 321 322 324 326 320 315 317 320 319 316 317 318 317 317 318 319 318 320 323 322 321 322 323 327 326 323 327 327 320 316 318 317 313 310 311 309 306 305 306 305 305 305 305
317 317 318 319 319 318 316 316 316 316 316 315 313 314 314 314 315 315 314 313 314 317 319 321 321 318 319 320 320 321 320 320 319 319 320 319 319 321 320 318 318 318 318 319 319 319 321 325 326 322 317 316 318 317 313 314 316 316 318 319 319 318 319 322 323 323 321 321 323 323 323 323 319 317 319 316 313 311 308 308 308 307 307 306 306 306 305 306
316 317 318 318 319 318 316 317 317 316 315 314 313 314 314 314 315 315 315 314 314 316 318 321 322 321 320 320 320 321 321 320 320 319 319 320 319 319 318 317 318 318 318 320 320 318 320 324 324 323 319 316 317 317 314 314 315 317 319 320 318 317 318 320 324 324 323 322 321 321 323 321 315 315 314 309 308 309 308 308 308 307 307 306 306 306 305 305
316 316 316 317 318 317 317 317 318 317 316 314 313 314 314 314 315 316 317 316 315 316 317 319 321 322 322 323 322 321 321 321 321 319 320 321 319 317 317 317 318 319 319 321 320 318 321 324 324 325 324 321 320 319 316 315 315 317 319 317 316 317 318 319 321 321 321 321 321 321 323 321 318 316 312 310 311 310 307 307 308 307 307 307 306 306 305 304
316 316 315 316 317 317 317 317 318 317 316 315 315 314 314 314 315 315 317 316 316 316 317 317 319 321 324 325 324 323 322 321 321 321 320 321 319 315 314 317 318 318 318 318 318 318 322 324 323 324 326 325 324 323 319 317 315 316 317 316 316 317 318 318 319 320 320 321 321 321 321 321 321 317 314 315 316 312 309 308 308 308 308 308 307 306 305 305
315 315 314 315 316 316 316 316 316 317 317 316 316 315 315 315 315 314 315 317 317 316 317 317 318 320 323 324 323 324 324 322 323 324 321 321 323 316 311 314 316 316 317 317 316 319 323 323 321 322 324 324 324 324 321 318 317 316 317 317 317 317 317 318 319 320 321 321 320 320 320 321 322 320 318 317 316 316 312 308 306 308 308 308 308 307 306 306
314 315 314 314 315 315 314 313 314 315 316 316 315 314 314 314 315 314 315 316 317 317 317 318 318 320 321 321 322 323 323 322 323 325 322 322 323 316 310 311 313 313 315 315 315 318 322 321 319 321 322 322 323 324 321 318 318 318 317 317 316 316 316 318 319 319 320 321 321 320 320 321 321 320 322 321 318 317 313 307 307 309 308 308 308 307 306 305
313 314 313 314 314 314 314 313 312 312 313 314 314 313 313 313 314 314 315 315 316 317 318 319 319 319 320 320 321 322 322 322 322 323 322 322 321 317 314 313 312 311 313 314 312 315 320 321 319 320 320 320 321 323 320 318 318 317 317 316 316 316 316 317 317 318 319 320 321 321 321 321 319 318 321 319 315 313 311 309 308 309 308 308 307 306 306 306
311 312 312 313 314 313 313 312 312 312 312 313 314 313 313 313 313 313 315 315 315 316 317 318 319 319 319 319 320 321 321 321 321 321 321 321 321 320 319 318 314 309 310 313 311 310 316 320 319 318 319 319 320 321 319 318 317 317 317 316 316 315 315 316 316 317 318 319 319 320 322 321 319 319 319 316 311 309 309 308 308 309 309 307 307 307 306 306
309 311 312 312 313 312 311 311 312 313 312 313 314 313 313 313 313 313 314 315 315 316 317 318 318 318 319 319 319 320 320 320 321 321 320 320 319 318 319 320 318 311 309 312 310 307 312 319 319 318 318 319 319 319 318 319 318 318 318 317 315 314 314 315 316 316 317 317 317 318 320 319 318 318 315 312 310 309 308 308 308 309 309 308 307 307 306 306
307 309 309 309 311 312 312 311 313 314 313 312 312 312 312 314 313 313 314 315 315 315 316 317 318 317 318 319 319 319 319 319 319 319 318 319 318 317 318 317 317 316 312 312 312 310 312 317 318 318 319 319 319 318 318 318 317 317 318 318 316 314 313 314 315 315 316 317 317 317 318 318 316 314 311 309 308 308 307 307 307 307 308 308 307 307 307 307
305 307 307 308 309 312 312 312 313 314 313 311 310 311 312 313 314 314 315 315 314 315 316 316 317 318 318 318 319 319 318 318 318 317 317 317 316 316 316 313 314 318 315 311 312 313 313 315 316 317 319 319 319 319 318 317 317 318 318 318 317 314 313 313 314 314 315 315 317 317 316 318 318 315 314 314 312 310 307 307 307 307 307 308 309 309 309 308
Wind_Speed
9 9 9 8 7 7 7 6 6 6 6 6 6 6 7 7 7 8 8 8 8 7 5 4 2 2 2 2 2 2 2 1 2 2 1 2 2 1 3 4 4 4 5 4 3 2 4 6 5 5 5 5 5 7 6 6 8 5 2 4 1 1 1 2 1 3 5 5 5 7 5 3 4 4 5 3 4 9 8 6 7 5 5 4 5 6 4 3
9 9 8 8 7 7 7 6 6 6 7 7 7 7 7 7 8 8 9 8 7 6 5 4 3 2 2 2 2 2 2 2 3 3 1 2 1 4 6 6 6 7 7 6 4 3 4 4 3 3 5 4 3 4 4 6 8 4 3 3 1 3 2 2 4 4 5 7 8 7 4 4 6 5 5 1 4 11 8 6 7 6 7 5 4 4 3 4
9 8 8 7 6 6 6 6 6 6 7 7 7 7 7 8 8 8 8 8 7 6 5 4 3 3 2 3 3 3 3 3 3 2 3 1 4 7 7 6 6 8 9 8 5 4 3 3 3 4 6 4 1 3 4 6 5 3 3 3 3 4 4 6 9 9 8 12 10 7 4 5 6 6 6 2 3 7 6 7 7 8 9 8 6 4 3 4
8 7 7 7 6 6 6 6 6 6 6 6 7 7 7 8 8 8 8 7 6 6 5 4 3 2 3 3 4 4 4 3 2 1 2 2 6 8 7 5 3 7 9 8 5 5 4 3 4 4 5 3 1 3 4 5 4 2 2 3 4 3 4 4 8 9 9 12 11 9 4 3 5 6 5 4 3 1 6 10 9 10 12 10 7 5 5 6
7 7 7 6 6 6 6 6 6 6 6 7 7 7 7 8 8 7 7 7 6 6 5 4 3 3 3 4 3 3 3 2 3 3 3 5 6 6 6 4 1 5 9 8 4 5 5 4 5 5 4 2 1 3 2 5 5 3 2 3 2 4 3 2 5 5 5 7 8 7 5 4 5 4 3 4 4 3 8 12 11 12 11 9 7 6 7 7
8 7 7 7 6 6 6 6 6 6 6 6 7 7 7 7 7 8 7 7 6 6 5 4 4 3 4 4 3 2 1 1 3 4 4 4 5 6 5 4 3 6 9 7 3 4 4 4 6 6 4 2 2 3 2 4 5 2 0 2 6 5 5 4 4 3 2 3 4 4 4 4 3 2 4 6 6 6 10 13 12 10 9 8 7 6 8 9
9 8 8 8 7 7 7 7 7 7 7 7 7 7 7 7 7 8 7 7 6 6 5 5 4 4 4 4 3 2 1 2 4 5 3 4 6 6 5 4 4 7 8 5 2 2 4 5 6 7 5 4 3 3 2 3 4 3 1 2 4 4 5 5 2 2 2 2 3 2 3 4 3 2 3 6 7 8 11 13 11 10 10 10 9 9 10 10
10 9 9 8 8 7 7 8 8 8 8 8 7 7 7 8 8 8 7 7 7 6 6 6 5 5 4 4 2 2 3 3 5 5 4 5 5 6 5 6 7 8 6 3 2 2 4 7 7 6 4 3 4 3 3 5 4 4 1 2 2 0 3 4 4 4 5 4 4 3 4 6 6 4 4 7 10 11 12 11 10 10 11 12 12 11 11 10
11 11 10 9 8 8 8 7 8 8 9 9 9 9 8 8 8 8 8 8 7 7 7 7 6 5 4 4 3 2 3 5 6 5 4 4 5 5 5 7 7 6 4 2 3 3 4 6 7 5 3 2 4 3 3 4 3 2 1 4 4 2 3 5 7 6 7 6 5 4 5 8 7 6 5 9 13 12 12 10 9 10 11 12 12 12 11 9
12 12 11 10 9 8 8 7 7 8 8 9 9 9 9 9 9 9 8 8 8 8 8 7 7 5 4 4 3 2 3 6 5 4 4 4 3 3 4 5 5 4 2 4 5 3 3 3 3 3 2 3 4 2 2 2 0 2 3 6 7 8 8 8 9 9 8 7 8 5 4 7 5 5 5 9 15 14 12 11 10 11 12 13 11 10 9 8
13 13 12 11 11 10 9 8 7 7 8 9 10 10 10 10 10 9 9 9 9 9 8 8 7 6 5 5 6 4 5 7 5 4 3 2 2 3 4 4 3 2 0 3 5 3 2 1 1 1 1 2 4 2 2 3 1 2 4 7 9 11 11 10 11 11 9 6 10 8 4 5 2 4 7 12 17 15 14 13 13 13 13 12 10 9 8 8
15 15 14 13 12 11 10 9 8 8 8 8 9 11 11 11 11 10 10 10 10 9 9 8 7 7 6 7 10 7 5 7 6 4 4 3 5 5 4 4 3 0 1 1 2 3 2 1 0 1 1 1 2 2 2 2 1 2 3 4 7 7 7 11 13 14 11 4 8 8 2 5 4 6 7 13 18 15 14 14 15 15 13 12 10 9 9 9
17 16 15 15 13 12 11 10 9 9 9 9 9 10 11 11 11 11 11 10 10 10 9 8 7 7 6 7 9 8 7 9 8 8 8 8 7 6 5 5 4 2 2 2 2 2 1 1 1 1 1 1 1 0 0 1 0 2 2 1 4 7 5 9 10 14 11 4 10 9 2 6 7 8 8 13 18 17 15 16 16 15 14 12 10 10 10 10
18 18 17 16 14 13 12 11 11 10 10 10 10 10 11 11 12 12 11 11 10 10 9 8 7 6 7 7 7 7 9 10 11 11 10 9 7 6 6 6 5 4 4 4 3 3 3 2 3 3 1 0 0 0 2 2 1 1 2 1 1 2 5 7 3 13 9 4 12 9 1 7 7 6 11 15 18 18 18 18 17 16 14 13 12 11 11 11
21 20 19 17 17 16 14 13 12 11 10 11 10 11 11 12 12 12 11 11 10 9 8 7 6 5 6 7 8 8 10 11 13 13 11 10 9 8 7 6 6 6 6 5 5 4 2 4 4 2 2 2 2 2 3 3 1 1 1 3 2 2 5 7 3 14 8 3 11 8 1 7 7 6 14 16 18 19 19 19 18 17 16 14 13 13 13 13
24 22 21 20 19 18 17 16 14 12 11 11 11 11 11 12 12 12 11 10 9 8 7 5 6 5 4 6 8 8 11 14 14 13 12 10 9 9 7 7 7 7 6 5 3 3 5 6 4 3 3 3 3 4 4 4 4 2 2 3 3 2 4 5 2 9 9 5 7 6 3 4 5 8 16 16 19 20 18 19 20 19 18 16 15 14 14 14
25 25 24 22 21 20 19 18 16 14 13 12 12 11 11 11 11 11 10 9 8 7 6 5 5 5 5 7 8 11 14 15 13 11 10 9 10 9 8 6 5 5 4 3 4 5 6 6 4 2 2 1 2 5 4 2 4 4 1 3 4 3 3 2 4 5 8 7 5 6 4 5 5 8 17 19 21 21 20 22 23 22 20 18 17 16 16 15
25 25 25 24 23 22 21 20 18 16 14 13 13 12 12 11 11 10 9 9 8 5 4 6 5 1 7 12 12 12 14 14 12 10 9 9 9 8 7 5 4 4 4 4 4 6 6 4 3 1 1 0 1 5 3 4 4 3 3 2 4 3 3 4 4 4 8 5 5 5 6 10 9 7 16 21 22 23 23 23 23 24 22 20 19 19 18 17
24 25 25 25 24 24 23 22 20 17 15 15 14 13 11 10 8 9 9 10 10 6 3 10 13 4 2 9 15 14 11 10 11 10 11 11 10 9 7 5 4 6 6 4 3 7 7 3 3 2 1 3 5 6 7 8 7 6 5 4 4 4 4 5 4 5 8 4 5 8 7 10 10 8 12 20 23 24 24 20 20 23 23 22 22 21 20 19
22 23 24 24 24 24 23 22 21 18 16 15 14 11 9 6 4 5 10 15 17 15 8 9 15 11 3 2 10 13 10 9 11 11 12 11 11 10 9 7 6 5 4 4 3 5 7 3 2 4 6 7 8 9 10 8 6 5 4 3 4 4 5 4 4 4 5 4 6 8 8 9 9 8 12 21 22 20 21 19 20 24 25 26 25 23 22 20
19 20 21 22 22 22 23 23 22 20 17 16 14 10 7 7 4 3 8 12 18 21 19 14 13 14 10 5 7 10 10 10 11 12 11 12 12 10 10 9 7 3 4 5 4 3 6 5 6 9 9 8 8 10 9 7 6 6 5 5 5 4 6 5 3 3 1 2 5 5 6 9 9 7 11 16 15 16 24 24 23 27 28 28 27 24 23 21
16 18 19 19 20 20 21 21 21 20 18 17 16 12 10 10 9 7 5 7 13 17 20 21 20 19 16 13 11 11 11 9 10 13 13 16 15 11 11 9 4 3 4 4 4 2 3 5 8 12 9 7 7 7 7 8 8 8 5 3 5 4 4 5 3 3 1 2 4 5 5 9 9 8 9 14 17 21 31 32 30 32 31 30 28 26 26 24
15 16 17 18 18 18 19 20 21 20 19 18 16 15 13 11 11 8 4 5 10 15 19 21 24 27 24 18 15 16 15 10 11 15 16 18 18 14 13 10 5 4 4 4 5 4 4 5 10 15 10 6 7 7 6 7 5 6 5 3 4 4 2 3 4 4 2 1 3 5 6 8 8 8 10 16 20 20 26 30 28 28 30 31 30 29 28 27
14 14 16 17 16 17 18 18 19 19 19 18 16 17 15 10 8 5 3 4 7 13 21 22 22 28 30 23 19 21 20 14 13 16 19 21 19 13 13 11 7 4 5 8 9 8 7 6 7 11 10 7 7 7 6 6 4 4 5 5 5 4 4 6 3 2 3 4 2 3 6 7 7 8 10 9 10 11 16 22 22 23 27 28 28 28 28 27
16 15 14 15 15 16 15 16 19 19 18 18 17 18 16 10 6 3 0 3 5 7 14 19 20 23 28 27 23 21 18 16 17 17 20 24 21 12 9 13 8 5 8 9 8 8 10 9 5 5 7 8 8 7 7 7 5 5 4 7 8 7 7 6 2 3 4 5 3 2 2 7 4 6 8 3 3 8 11 15 19 21 24 27 28 29 28 26
18 17 16 15 14 13 15 17 19 19 19 19 16 17 17 12 6 3 2 3 5 4 4 11 14 14 20 25 26 19 9 11 16 19 20 22 24 15 7 8 6 5 8 7 5 4 5 10 8 6 7 8 8 7 6 7 5 4 5 7 8 8 7 6 1 1 2 4 3 3 2 7 6 5 8 5 5 9 9 10 15 20 23 28 30 30 30 28
20 20 18 17 15 16 19 18 18 19 18 16 14 18 18 13 9 5 4 4 5 6 8 9 10 11 14 21 30 20 3 7 13 17 24 23 24 19 8 6 5 6 7 5 4 4 4 9 9 8 8 7 7 6 6 7 7 4 5 4 6 6 7 6 3 2 4 3 4 2 3 5 9 7 7 7 8 9 9 9 12 18 23 27 29 30 30 29
22 21 20 19 18 20 21 18 18 20 15 10 13 18 18 15 12 7 5 1 3 6 6 7 9 12 13 21 33 20 6 12 11 14 27 27 23 17 8 8 7 6 8 7 5 4 3 8 9 10 8 6 6 5 6 9 6 5 5 5 6 5 4 3 4 1 1 2 4 2 3 3 9 6 1 3 7 10 12 13 13 19 24 27 29 29 29 28
24 22 22 20 17 21 22 18 18 17 12 10 13 18 20 18 12 6 3 2 2 3 3 7 9 11 16 21 25 15 9 7 3 13 25 23 21 12 4 8 7 6 9 8 7 3 1 6 8 8 7 6 5 1 3 8 5 4 4 6 6 4 4 5 4 3 3 2 4 5 5 3 8 4 3 2 5 9 12 12 12 19 27 28 29 29 27 27
27 25 24 21 21 25 25 22 20 15 13 14 16 22 25 18 9 4 2 3 1 0 3 8 8 12 20 16 9 7 6 2 5 15 15 11 15 8 2 6 4 3 3 5 4 2 1 2 2 3 4 5 6 3 3 3 7 7 7 6 7 6 5 4 3 4 2 4 6 10 11 7 6 3 4 4 5 7 8 7 7 15 25 29 30 30 29 28
32 29 26 25 27 28 28 29 25 19 18 17 21 28 24 10 3 3 6 1 2 1 5 4 4 10 18 14 6 6 4 2 7 14 8 4 8 5 3 4 1 2 2 5 4 4 3 1 1 2 5 6 7 4 5 3 6 8 5 5 4 4 4 4 4 4 1 6 5 10 12 11 9 6 3 5 6 5 7 7 7 11 22 30 32 32 32 31
36 33 30 32 32 29 31 31 25 21 21 20 29 32 18 4 1 5 5 2 1 4 5 4 4 7 11 11 9 9 5 3 7 9 6 4 5 6 6 6 6 3 3 5 3 4 2 3 2 1 4 7 7 3 3 5 3 5 5 6 3 2 2 3 2 0 4 6 3 6 8 7 10 8 7 10 10 9 8 8 11 15 22 29 32 33 34 33
36 35 35 36 36 35 35 29 23 25 24 26 33 25 9 4 7 9 8 4 2 3 4 4 5 8 11 9 6 6 4 2 7 7 4 4 5 7 7 5 6 4 3 6 4 2 3 5 1 2 3 8 10 6 3 2 2 6 6 7 5 3 1 3 4 2 4 5 4 3 6 3 6 5 11 15 12 10 9 10 14 19 25 30 33 34 34 35
36 35 38 39 38 38 35 30 28 29 29 32 28 13 5 8 9 10 14 12 4 2 3 4 5 7 9 6 4 6 4 2 7 7 4 5 5 6 5 6 9 4 3 4 3 6 5 6 5 8 4 10 13 9 7 5 5 6 5 6 5 5 4 4 4 4 4 4 4 1 3 4 3 2 8 9 8 6 7 9 14 18 23 28 31 32 34 35
36 35 39 41 41 40 37 34 34 32 34 33 19 7 10 11 9 12 15 12 6 2 2 5 8 6 6 3 2 6 4 2 6 6 4 6 6 7 7 8 11 7 4 4 2 4 7 7 7 7 5 13 14 8 8 8 3 3 3 4 3 6 5 3 3 4 3 2 3 2 4 5 4 5 5 3 5 4 2 7 13 16 20 26 29 32 34 36
35 36 40 43 46 45 41 39 37 38 40 31 12 7 12 10 9 10 8 8 10 4 4 5 5 4 5 3 3 6 3 2 6 5 4 5 4 6 7 6 11 12 9 7 2 3 5 5 4 1 3 7 10 6 8 7 5 2 3 4 4 4 5 2 3 1 2 3 4 4 5 4 3 7 5 1 3 3 0 6 12 16 21 27 30 34 36 37
38 39 43 48 51 47 45 43 40 42 42 26 11 10 11 11 11 7 3 7 12 9 6 4 4 6 7 4 4 7 3 2 6 6 3 3 4 8 8 5 11 17 14 8 3 3 5 3 3 2 2 4 3 3 3 3 6 5 4 6 2 2 1 2 1 3 2 4 5 4 7 5 2 6 3 2 3 6 5 6 9 14 21 26 29 34 36 38
39 40 43 50 52 49 49 44 41 44 36 15 9 12 10 13 15 11 8 8 10 10 7 8 7 6 8 7 5 8 6 3 6 6 4 4 4 9 12 7 11 21 21 12 4 3 4 3 3 1 2 2 2 3 1 2 3 5 4 5 4 1 1 3 2 2 2 4 5 3 5 6 6 6 2 4 9 10 8 7 7 12 20 25 28 32 35 36
35 33 34 44 50 49 47 43 46 45 26 6 7 11 9 14 18 17 16 11 9 11 10 11 9 5 7 8 6 7 9 7 8 6 5 5 4 7 14 11 9 18 23 17 7 3 3 3 3 1 1 1 1 2 4 2 0 3 2 2 2 2 3 4 3 3 3 3 4 3 3 5 7 7 8 10 13 13 11 9 9 14 23 28 30 33 35 38
31 21 21 38 45 44 45 45 43 32 13 6 10 10 9 11 13 21 27 20 10 9 11 12 11 8 8 9 8 8 8 7 9 8 5 6 5 5 10 12 7 12 22 21 10 3 2 2 3 1 2 1 2 4 7 10 7 3 3 5 3 1 2 1 2 2 4 2 3 3 6 7 4 5 10 14 14 13 14 13 12 17 26 30 32 36 38 40
26 11 14 31 37 41 47 41 27 14 7 8 10 11 10 5 4 16 30 28 16 8 8 9 12 12 9 9 9 8 8 6 8 8 5 7 7 5 9 15 12 11 14 12 9 6 3 3 3 2 1 3 5 5 5 8 7 6 6 7 7 5 4 1 4 3 4 3 4 3 8 10 4 4 7 11 10 10 15 16 14 19 28 32 33 37 39 40
19 8 10 20 28 44 47 25 11 10 7 10 14 13 7 1 4 12 20 26 20 10 5 3 9 12 10 9 8 7 8 7 8 8 6 9 11 6 12 22 22 20 15 9 11 10 4 3 3 3 4 5 5 4 1 2 3 3 3 4 5 6 7 6 6 4 3 4 3 3 5 9 2 1 3 5 6 9 16 19 17 21 30 32 34 36 37 39
18 16 13 11 25 49 42 13 9 13 7 12 19 16 9 5 6 9 13 19 17 12 9 4 4 8 8 7 8 9 9 7 9 12 8 8 11 9 16 26 24 18 13 6 6 6 4 3 3 1 1 2 4 4 4 4 3 2 3 5 7 8 8 6 5 4 3 5 4 2 6 7 3 2 3 3 5 6 14 21 21 21 25 29 31 34 36 38
20 22 15 10 26 45 31 7 10 13 9 14 16 16 18 13 10 10 11 15 15 11 10 7 4 5 5 4 5 8 11 9 9 13 10 6 7 8 16 29 25 15 11 9 10 11 7 4 4 2 1 2 3 2 3 2 2 4 5 6 8 8 7 3 1 2 4 8 8 5 10 8 3 4 4 5 5 3 6 17 20 19 22 27 31 33 35 36
16 17 15 19 35 42 28 15 14 11 11 15 14 17 20 13 15 20 15 14 17 13 9 11 9 5 2 3 2 3 9 11 8 9 9 6 4 1 7 22 26 18 14 15 18 17 10 4 6 7 7 8 8 5 4 4 4 3 3 7 10 12 13 9 3 4 9 7 9 9 12 6 3 5 5 5 4 4 3 10 17 20 23 27 30 32 34 36
8 7 8 17 31 34 26 20 15 9 11 15 12 14 18 12 14 24 20 13 17 18 13 11 10 6 3 4 4 3 7 8 3 4 6 6 4 1 1 9 15 13 10 13 19 16 4 2 10 14 13 14 13 6 5 8 7 7 9 12 14 15 16 11 5 9 9 2 6 13 12 8 7 4 5 6 4 4 4 7 14 20 23 26 30 32 35 37
7 3 5 9 14 18 17 13 9 5 9 15 9 8 17 18 10 14 18 15 17 20 14 9 9 8 7 8 8 8 8 5 2 3 5 5 2 2 1 1 3 5 5 11 17 11 3 3 12 15 16 18 14 6 8 12 12 14 14 15 16 15 15 14 14 15 8 4 11 11 8 12 14 7 8 9 6 5 6 10 17 21 24 27 29 31 33 35
10 4 10 14 8 5 10 13 11 8 9 11 9 6 14 18 12 10 14 15 17 17 11 8 11 13 15 16 12 9 9 7 5 5 5 4 2 1 2 3 1 3 4 6 8 5 3 6 9 11 14 18 14 6 8 11 11 11 15 17 17 17 18 19 21 19 11 10 17 8 11 18 16 8 10 10 10 12 15 18 21 20 22 25 26 29 32 34
14 9 9 15 10 6 10 14 12 10 11 9 8 8 11 16 17 14 10 8 11 13 12 11 16 20 19 17 12 10 10 10 10 10 7 6 5 3 2 1 2 2 4 4 4 2 2 4 4 8 12 17 15 8 7 10 8 8 12 16 17 20 23 22 23 21 17 18 20 9 8 17 12 8 11 13 17 20 16 16 17 16 20 23 26 29 31 33
14 10 5 7 10 9 12 12 9 9 10 8 6 8 9 14 18 15 10 10 10 12 15 18 22 21 19 16 14 13 14 14 15 14 10 8 6 5 5 4 3 3 3 4 2 1 3 2 2 6 7 14 14 8 6 8 8 8 9 11 15 18 19 19 20 18 15 19 21 11 9 15 7 6 7 9 13 12 10 13 18 18 21 24 27 29 30 31
17 15 10 7 6 6 9 8 7 7 7 6 5 5 7 13 15 12 11 16 16 12 14 21 24 17 14 16 16 16 20 19 18 15 11 12 12 11 9 6 6 6 4 5 3 3 5 3 2 5 5 11 11 10 9 8 6 7 12 17 18 14 11 15 16 14 15 19 18 12 13 14 5 5 2 4 8 10 10 15 18 19 21 24 26 27 28 30
19 19 16 9 4 6 7 5 6 8 7 8 9 9 8 10 10 8 7 12 18 19 18 22 22 12 9 14 20 25 29 24 17 15 12 13 14 14 13 12 12 11 7 5 3 3 5 4 2 5 7 11 7 8 10 7 5 8 15 19 18 12 11 13 14 15 18 17 14 12 14 11 4 5 4 4 6 8 11 16 18 18 20 23 23 23 23 26
Wind_Direction
206 208 209 210 209 211 209 208 205 203 201 200 196 189 189 192 190 186 184 183 182 186 191 200 209 233 263 284 306 321 325 354 294 295 252 256 326 129 137 110 83 58 38 18 19 67 89 69 43 58 49 27 34 22 24 24 16 22 84 74 18 217 41 286 189 157 149 145 173 164 150 138 149 147 138 135 123 131 131 118 121 134 142 145 154 165 185 184
206 208 209 206 203 204 202 202 200 197 197 195 189 184 187 185 183 184 184 187 191 195 200 209 222 239 265 286 300 313 314 314 295 297 350 305 250 146 136 115 78 51 39 22 26 50 78 80 62 64 31 11 35 31 31 17 18 37 96 72 259 194 44 14 109 102 125 146 160 147 112 120 152 156 147 164 131 135 123 101 124 142 139 143 161 170 176 167
202 202 203 201 199 200 199 200 198 197 196 193 189 185 185 183 183 187 191 196 199 204 211 217 228 245 273 291 299 312 317 309 283 294 360 331 167 148 143 129 74 42 36 24 25 46 64 78 61 44 22 10 48 42 29 11 20 35 70 76 247 201 67 51 82 78 114 141 139 130 122 124 143 151 147 166 115 127 139 141 151 159 159 161 165 174 177 172
197 198 198 198 197 198 200 202 201 201 200 197 194 189 190 189 190 193 198 204 208 214 219 223 233 249 277 292 299 313 330 327 205 172 33 131 154 156 159 152 66 23 27 21 26 55 65 82 67 41 17 355 40 64 42 15 11 7 78 149 224 171 88 60 86 80 100 122 123 128 130 114 146 157 156 156 103 78 173 173 185 184 179 175 170 179 183 184
196 198 198 199 200 200 201 205 208 207 206 205 202 199 200 198 199 201 206 211 215 220 223 229 237 252 275 285 295 313 358 47 139 128 108 139 156 169 173 174 279 353 9 10 33 69 61 55 42 26 12 333 48 73 45 15 16 20 80 149 107 89 117 132 110 100 104 113 117 125 121 120 152 169 188 178 173 217 190 182 190 187 185 181 179 186 185 188
201 204 206 208 207 207 207 209 213 215 215 213 211 211 210 209 209 209 213 216 220 225 228 234 239 253 267 273 290 307 6 107 163 147 128 146 164 174 181 197 261 329 347 355 28 76 58 40 20 7 9 17 78 102 90 18 24 39 357 79 62 73 134 158 130 132 151 127 118 123 139 148 152 214 240 213 205 206 186 179 179 184 197 204 204 197 191 193
209 211 215 219 218 220 220 219 220 222 224 222 221 221 220 220 218 218 219 220 226 231 233 240 244 250 259 270 283 274 258 216 182 173 164 165 179 188 195 222 276 316 331 347 4 68 56 37 20 5 18 37 50 80 78 10 38 92 292 21 56 71 126 162 171 166 202 177 147 142 170 194 189 217 232 209 204 197 183 180 185 200 212 218 218 201 194 195
212 214 216 219 222 225 227 228 229 230 232 232 230 230 230 230 229 228 226 228 232 234 239 243 245 248 254 268 271 253 250 214 175 169 172 177 194 212 229 263 294 310 321 356 29 68 59 42 33 19 36 50 26 34 39 15 32 81 32 345 15 50 158 195 221 225 241 224 195 220 234 236 231 232 239 210 199 194 193 196 203 212 214 211 205 193 191 195
214 214 214 215 217 221 227 233 236 238 241 241 239 238 238 238 239 237 235 236 235 236 240 243 248 252 255 254 249 261 236 186 176 170 167 189 211 237 265 289 303 309 320 87 100 104 86 56 47 42 45 19 7 22 48 38 22 50 24 342 334 278 227 220 225 230 243 238 221 237 249 255 252 248 260 226 205 198 199 203 205 206 204 193 189 186 185 192
221 218 219 219 218 220 224 230 238 243 247 247 247 244 243 243 244 245 243 242 240 240 241 243 249 250 250 230 210 235 195 166 173 172 164 187 214 262 291 308 315 312 340 116 123 118 99 61 39 33 17 358 11 18 39 65 138 354 347 325 305 277 269 240 224 227 234 239 229 217 246 269 252 220 241 213 198 198 197 193 195 197 191 181 182 187 188 197
228 227 227 225 225 227 228 232 239 245 250 253 252 249 248 247 247 246 246 247 246 246 244 246 249 248 245 218 205 209 183 171 177 177 173 189 244 298 299 302 314 325 358 134 134 124 106 70 350 356 356 18 17 18 49 73 120 353 340 319 293 285 286 251 223 222 215 225 225 209 249 290 226 209 236 206 192 197 197 189 191 193 188 182 183 192 202 212
231 231 232 231 231 232 235 240 243 249 255 257 256 254 252 249 248 247 246 247 248 250 249 250 250 244 240 231 231 230 201 188 191 205 228 263 280 283 281 278 282 253 221 188 135 129 131 124 11 18 66 83 360 16 56 40 4 325 334 317 297 319 308 247 226 212 194 193 206 188 314 301 224 226 236 201 189 191 196 191 189 192 191 188 191 201 210 219
236 234 236 237 237 237 239 243 247 254 258 262 261 257 254 251 250 248 246 247 247 250 250 252 251 245 238 240 245 237 221 218 221 236 252 269 277 270 261 251 248 229 216 222 176 157 214 283 211 190 124 96 341 14 311 296 289 297 299 188 310 349 321 256 230 199 182 171 179 162 311 279 251 238 204 186 186 185 188 188 188 193 196 196 202 210 215 221
242 240 240 241 243 243 243 245 249 254 260 266 265 260 255 250 249 247 247 248 247 248 250 251 253 248 239 242 252 238 227 232 237 244 250 259 264 260 253 240 237 234 219 219 230 269 286 243 195 196 207 191 83 115 322 334 150 283 336 51 357 348 289 297 198 169 164 180 172 147 235 256 276 245 184 182 188 186 186 185 189 196 198 202 206 211 217 221
244 244 243 243 244 244 245 247 249 253 259 263 266 263 255 249 249 246 246 247 247 248 246 247 247 245 248 248 248 236 231 235 239 242 246 252 256 252 244 231 227 225 225 238 250 267 237 179 179 165 148 154 109 71 5 354 350 51 31 317 328 174 265 313 151 163 157 187 174 146 220 260 279 221 183 184 187 190 191 188 194 199 201 205 207 211 215 219
243 244 244 244 244 245 247 248 249 252 255 259 263 260 254 250 248 245 246 245 245 245 241 238 226 220 252 258 243 234 234 234 237 242 245 246 245 240 233 228 228 227 231 243 240 204 176 168 159 144 140 142 116 85 46 4 337 358 144 251 275 192 271 320 240 186 159 140 186 191 212 262 274 200 186 188 190 193 194 194 198 202 206 206 207 214 214 216
240 241 243 243 244 246 247 249 250 249 251 254 256 255 252 249 246 245 242 239 236 230 221 216 210 222 246 248 240 236 234 232 234 238 239 237 235 233 228 222 218 218 220 208 190 173 172 165 144 152 157 137 119 94 60 338 300 313 202 236 251 219 242 286 290 232 164 142 197 223 233 248 265 199 190 197 197 196 198 201 203 203 206 207 207 212 214 217
238 239 241 241 243 244 245 248 248 247 248 250 250 249 247 246 246 241 235 234 223 204 213 203 179 240 252 233 230 235 233 230 232 232 229 225 223 223 216 211 201 179 165 168 179 167 165 157 132 131 13 22 150 115 130 230 213 216 190 212 258 253 245 233 265 226 167 163 199 207 241 250 263 233 203 205 202 202 207 207 204 203 204 204 205 208 212 217
236 237 238 239 240 240 242 244 246 246 247 247 247 244 243 243 243 240 231 217 197 178 207 205 191 177 261 225 223 229 230 220 220 221 217 212 208 204 190 175 164 152 145 145 187 175 161 111 86 116 217 210 199 170 191 209 184 184 185 176 203 234 270 247 247 216 169 177 223 209 228 243 250 248 220 212 206 208 216 214 206 203 203 203 205 207 210 214
236 235 235 236 237 238 240 241 243 244 242 244 242 234 231 220 216 238 224 215 215 219 226 208 203 212 224 200 210 216 212 199 204 208 204 200 196 184 164 153 148 144 149 154 185 185 162 147 163 198 212 203 202 202 209 212 198 214 231 230 211 215 268 266 257 249 166 166 243 226 232 249 245 244 232 218 209 210 217 219 211 204 203 205 204 204 207 211
242 238 235 235 234 236 238 238 240 238 237 237 230 216 202 185 185 227 221 230 238 237 238 232 223 228 233 230 217 210 196 184 196 202 194 189 184 172 165 157 141 166 213 166 137 151 162 190 219 218 215 199 201 211 217 225 229 244 249 256 258 234 256 266 264 276 148 180 263 266 264 266 255 250 241 216 200 210 214 214 214 208 205 207 204 201 202 206
247 245 242 238 234 234 235 236 237 233 232 230 220 206 196 194 206 221 230 263 258 243 240 238 235 237 235 234 234 217 195 178 190 197 186 178 178 179 173 159 145 195 204 145 105 133 201 231 231 225 219 202 219 226 216 221 227 236 235 235 257 254 266 296 323 324 34 178 262 308 297 272 263 257 245 216 204 215 216 215 215 210 205 203 201 200 200 202
242 245 246 243 238 234 232 233 234 229 226 226 217 205 203 200 203 215 228 275 273 252 240 234 231 230 226 224 220 208 200 191 191 192 183 176 180 186 173 157 176 190 164 159 159 176 215 243 234 223 213 200 234 250 225 220 225 222 209 191 238 255 257 280 303 300 308 218 258 316 305 276 270 263 253 232 219 220 221 220 221 216 209 206 203 205 205 205
235 236 240 243 240 235 230 228 229 227 224 224 220 209 202 192 188 203 231 265 282 257 245 240 234 230 224 217 211 207 207 210 206 195 187 182 179 178 179 177 176 174 191 196 189 200 215 231 223 203 201 201 219 242 223 212 242 239 201 190 218 238 218 230 275 316 337 338 323 342 314 283 262 253 261 250 223 221 221 218 220 220 215 210 207 208 211 213
228 228 233 234 235 235 229 223 222 222 221 221 219 209 198 183 168 164 277 288 280 260 250 239 234 237 227 217 213 207 211 221 220 209 198 193 185 171 182 190 179 182 208 200 197 223 231 232 217 165 193 209 207 226 213 191 223 268 230 204 210 218 223 235 290 25 2 324 300 73 311 282 276 255 264 283 193 219 217 209 211 211 208 207 205 205 209 214
226 225 228 228 228 221 209 216 223 221 221 223 215 201 196 182 154 148 95 6 281 228 191 205 215 227 215 207 200 193 219 234 215 211 206 201 197 185 172 185 187 201 197 184 204 239 217 209 209 179 187 205 208 227 220 180 177 251 247 206 206 216 227 236 238 59 265 268 279 99 148 274 289 263 249 231 210 225 221 213 210 201 198 201 203 204 206 208
227 224 226 226 220 205 200 213 225 220 219 223 209 193 190 175 148 137 100 12 280 183 149 177 186 190 195 192 185 181 225 189 176 195 195 194 198 194 191 184 181 200 174 153 231 257 159 179 198 195 189 195 199 221 221 168 152 231 246 173 175 203 217 215 168 171 226 258 321 36 125 277 281 261 238 205 211 240 236 229 220 204 197 198 200 203 206 209
229 224 224 223 218 212 209 216 223 221 218 208 196 189 178 163 152 134 107 331 255 145 143 176 167 172 176 178 182 177 134 141 146 185 185 186 193 194 210 201 177 190 175 163 219 266 147 171 185 183 186 198 198 217 196 157 154 240 225 128 130 159 165 137 117 151 302 355 311 282 131 270 272 263 285 172 212 248 243 231 223 210 203 199 198 202 206 209
230 224 222 221 219 213 207 211 218 218 210 180 175 176 164 157 153 120 91 227 197 112 135 164 156 162 157 165 181 172 128 131 132 174 177 184 190 186 212 204 181 181 195 200 212 240 173 187 185 169 180 203 196 211 166 164 186 206 144 85 69 69 72 73 92 97 21 327 236 211 171 236 269 237 120 120 227 242 244 236 222 210 208 203 199 200 203 205
230 226 222 214 212 207 198 203 209 197 180 173 169 162 156 153 141 109 183 221 220 84 126 154 164 163 154 154 182 167 132 92 110 150 165 178 184 180 153 182 169 133 209 262 238 237 5 170 193 167 174 173 145 82 42 162 168 132 94 60 45 24 32 41 54 84 32 273 216 197 189 197 267 268 168 194 223 222 234 243 220 203 205 206 203 201 201 202
228 224 221 216 214 209 201 204 202 181 169 171 166 157 151 143 111 172 202 265 334 164 123 149 179 160 159 158 172 172 135 81 137 148 155 159 174 173 124 158 165 82 290 294 294 318 353 107 243 171 154 126 105 75 24 43 126 114 88 83 68 349 13 19 3 58 234 253 210 198 192 189 231 263 223 228 247 230 219 223 210 193 198 203 203 203 202 201
227 222 222 224 223 219 216 214 204 182 175 171 164 158 151 139 231 219 211 57 354 198 151 170 191 167 171 170 172 172 143 137 168 162 160 157 172 187 184 186 176 163 247 234 245 319 300 238 227 136 172 158 124 89 20 6 50 99 106 113 120 283 8 357 306 122 231 256 251 198 182 199 235 254 256 254 258 250 237 230 215 197 194 198 199 200 201 201
228 225 223 223 224 226 224 221 207 187 177 171 167 160 149 182 200 215 215 191 207 200 140 152 172 164 166 172 182 166 133 155 176 170 166 152 176 209 224 229 190 180 205 189 192 218 268 296 236 141 249 193 167 158 181 243 175 150 141 143 158 171 169 257 244 254 256 266 286 194 164 226 269 266 248 250 258 256 260 255 228 209 201 200 198 197 198 199
227 228 228 222 223 228 224 215 203 188 175 172 170 161 167 196 201 208 217 221 216 99 111 134 137 153 167 180 191 164 149 198 173 161 153 150 178 216 230 241 217 196 93 148 184 181 214 286 203 182 203 184 186 193 172 139 158 180 153 140 159 160 177 217 207 223 254 275 290 243 164 198 212 247 240 249 278 277 268 251 222 212 206 197 192 191 193 197
227 230 232 225 221 223 221 211 200 187 177 173 172 176 184 193 205 209 217 218 200 86 77 124 119 141 194 229 221 182 175 197 170 159 166 173 189 202 199 212 204 180 132 177 220 167 200 260 223 193 165 168 188 192 135 113 149 220 118 117 184 182 182 227 205 184 189 289 282 220 221 216 209 262 260 263 299 303 260 209 190 189 189 183 182 187 191 195
228 230 229 225 222 221 218 209 196 188 181 173 174 201 195 204 205 200 209 192 188 178 97 117 125 148 200 214 228 212 191 125 160 168 195 199 212 204 199 206 192 187 184 180 177 149 186 272 270 152 119 177 194 180 149 157 178 176 144 175 199 169 165 221 275 32 85 272 262 196 244 291 303 272 260 119 288 290 225 179 175 174 174 176 182 186 191 194
224 225 221 220 223 223 218 208 196 190 186 178 187 200 194 219 216 195 185 176 186 178 131 166 192 165 187 197 201 206 193 109 166 179 188 194 229 207 200 210 189 194 202 188 190 193 171 251 283 136 175 243 219 148 148 160 140 132 185 197 140 63 93 143 261 342 43 262 266 202 231 256 239 259 282 85 240 254 242 198 174 171 174 179 186 189 193 196
225 223 218 219 223 220 215 207 195 193 193 186 206 206 199 217 215 201 188 174 178 179 180 218 204 158 182 196 186 187 182 169 180 186 180 189 243 203 186 198 192 196 203 195 210 242 170 215 280 111 182 270 31 127 131 8 111 133 187 186 130 122 208 138 177 233 199 253 279 256 239 228 205 218 215 192 219 228 226 203 185 185 185 188 190 191 194 196
229 220 218 224 223 218 216 206 193 194 198 198 206 208 214 219 212 203 197 188 183 187 203 223 212 187 195 186 166 177 187 187 174 174 187 194 235 201 180 187 195 195 194 187 197 233 172 205 264 338 225 247 47 151 175 203 215 51 69 168 138 136 173 170 177 177 171 235 277 302 286 239 216 201 182 197 214 212 203 197 200 199 193 192 192 191 193 196
224 213 227 229 220 217 215 204 195 194 198 207 207 212 223 222 209 204 207 209 200 192 208 216 207 208 209 185 167 174 189 192 175 180 207 193 208 228 188 179 175 184 187 188 193 193 157 220 234 295 327 186 184 202 187 184 183 151 152 181 189 130 112 181 216 152 142 188 237 269 277 263 233 192 188 200 210 205 195 196 204 204 198 196 196 195 195 198
221 210 239 229 217 209 203 196 195 201 205 207 216 226 228 235 209 203 211 218 222 220 216 208 202 206 205 189 181 175 177 188 183 189 217 201 205 239 194 178 167 162 174 189 202 195 189 204 175 172 234 206 222 244 213 190 183 176 184 190 187 172 138 188 249 207 154 197 197 199 268 267 234 183 205 208 210 205 197 197 201 201 199 199 200 200 200 201
225 230 240 224 212 199 190 187 199 198 200 208 215 224 222 241 218 201 209 220 230 245 245 219 208 207 203 194 188 171 167 181 190 194 216 213 209 215 191 183 174 163 159 180 204 193 156 130 154 186 206 208 244 277 274 164 148 136 180 190 184 188 175 186 228 216 174 231 212 140 272 276 259 163 244 237 235 223 206 200 201 203 202 201 202 202 203 205
225 236 238 225 209 195 184 183 207 193 206 213 213 224 223 213 213 194 197 212 224 234 229 230 205 205 214 199 179 175 177 185 197 199 212 219 213 211 192 183 175 165 162 173 197 175 123 135 181 217 323 344 320 331 13 38 78 130 218 188 183 208 202 192 212 184 177 226 199 165 257 268 316 330 311 311 287 248 212 204 203 203 202 202 203 204 203 204
228 234 235 220 204 194 185 187 196 192 209 204 204 220 222 221 214 197 194 202 210 219 221 223 199 192 219 198 168 178 184 193 209 205 206 213 211 212 193 184 176 168 176 184 174 167 172 178 156 161 278 321 333 330 340 348 173 205 228 192 191 208 204 218 256 144 237 224 176 191 245 246 293 319 338 353 340 323 221 210 207 202 200 202 204 205 204 203
234 230 222 205 197 193 194 204 198 195 204 200 202 210 213 221 215 209 209 204 207 213 219 226 214 185 184 183 155 165 191 207 223 209 206 212 206 208 191 190 186 182 192 192 173 167 175 175 159 179 218 230 230 222 203 188 182 208 208 182 196 201 196 208 216 208 239 221 169 208 242 249 326 324 322 334 335 334 260 209 206 207 206 205 204 203 203 203
234 219 209 198 198 202 209 210 205 202 200 201 207 205 206 215 212 209 209 206 210 212 221 231 214 188 189 200 197 218 217 222 216 188 204 207 204 353 40 198 197 190 190 180 165 159 154 191 190 195 207 220 231 230 155 139 155 202 203 191 200 204 198 198 209 221 224 183 203 226 235 255 275 276 272 267 240 247 250 205 203 208 208 206 205 205 205 205
238 200 178 182 205 223 233 231 228 235 205 197 193 192 204 210 210 201 203 208 209 207 216 231 210 194 199 204 212 220 219 215 148 162 200 194 208 311 7 133 193 168 146 160 163 151 96 204 206 208 216 227 234 216 153 157 178 198 200 198 203 204 197 196 214 222 188 162 242 227 192 240 248 214 224 239 218 227 237 214 210 209 206 204 203 204 204 205
239 221 193 189 190 213 230 233 229 233 231 206 185 177 198 206 209 193 196 211 212 204 207 219 215 214 209 204 209 216 213 215 211 208 207 182 145 4 7 7 309 148 112 144 160 132 120 206 214 213 226 239 240 206 167 181 194 196 197 202 201 198 199 202 216 221 188 203 242 208 168 229 239 205 214 219 200 211 217 213 211 207 204 201 198 200 202 202
242 264 227 204 202 184 197 211 205 208 227 218 198 198 194 200 209 205 193 199 209 206 202 208 215 217 214 208 204 207 207 207 216 217 200 182 169 154 163 272 231 169 108 136 162 132 162 208 204 193 222 244 242 219 182 187 201 209 207 209 204 201 203 204 215 220 207 222 239 213 202 242 238 200 219 217 209 212 210 209 208 200 198 196 195 200 201 202
240 259 266 226 227 199 176 181 173 183 207 203 204 219 208 205 210 209 198 188 194 201 200 212 221 214 210 211 206 214 218 209 217 220 190 172 191 188 189 200 174 145 131 147 152 155 184 195 105 145 213 250 241 222 197 192 203 220 222 222 216 211 207 208 218 220 212 232 241 230 251 260 225 171 214 216 204 197 184 196 202 200 199 194 195 201 202 204
251 257 273 286 259 194 168 171 167 175 195 187 189 208 217 224 218 208 207 205 204 202 195 212 224 216 208 215 212 221 226 215 221 229 196 183 202 202 200 194 150 140 169 173 155 163 182 199 72 124 205 248 235 207 208 212 215 235 244 236 223 209 202 210 220 214 206 226 236 231 247 253 207 126 120 150 170 177 183 195 196 196 196 193 195 201 204 210
252 259 267 280 261 197 185 184 182 194 203 189 190 192 202 227 223 200 214 220 215 216 210 214 223 216 203 214 215 223 229 228 236 246 229 215 216 207 200 190 165 159 171 167 151 160 165 175 169 157 213 252 235 183 192 209 219 240 247 238 220 199 200 214 224 220 212 216 221 222 234 237 180 148 169 166 175 187 196 199 195 190 190 193 199 203 209 216